Location: Township of Marena
(38.1747°N, 99.6798°W)
Time: 03:30:10
(UTC+00:00)

NOSS 3-2 (C) - Pass Details

Date: 26 October 2020
Orbit: 788 x 1424 km, 63.4° (Epoch: 23 November)

Event Time Altitude Azimuth Distance (km) Brightness Sun altitude
Exits shadow 10:31:41 46° 358° (N) 1,190 3.9 -29.5°
Drops below altitude 10° 10:36:26 10° 27° (NNE) 2,736 6.2 -28.6°
Sets 10:39:16 0° 31° (NNE) 3,787 7.1 -28.0°
